Location: Albany
(35.0170°S, 117.8920°E)
Time: 15:57:40
(UTC+08:00)

Transit 2A - Pass Details

Date: 28 January 2021
Orbit: 601 x 958 km, 66.7° (Epoch: 02 March)

Event Time Altitude Azimuth Distance (km) Brightness Sun altitude
Rises 22:47:20 0° 195° (SSW) 3,546 10.5 -32.4°
Reaches altitude 10° 22:50:22 10° 181° (S) 2,644 9.5 -32.7°
Maximum altitude 22:55:17 24° 128° (SE) 1,878 8.0 -33.1°
Enters shadow 22:55:24 24° 127° (SE) 1,879 8.0 -33.2°
Drops below altitude 10° 23:00:17 10° 76° (ENE) 2,697 - -33.6°
Sets 23:03:23 0° 63° (ENE) 3,632 - -33.8°
